Location: Donald C. Martin Observatory
(38.3885°N, 82.3916°W)
Time: 07:14:47
(UTC-04:00)

Cosmos 1484 Rocket - Visible Passes

Search period start: 01 September 2014 00:00
Search period end: 11 September 2014 00:00
Orbit: 515 x 575 km, 97.4° (Epoch: 31 August)

Date Brightness Start Highest point End Pass type
(mag) Time Alt. Az. Time Alt. Az. Time Alt. Az.
01 Sep 5.5 21:51:41 10° SW 21:54:09 17° W 21:56:38 10° NW visible
02 Sep 5.3 21:45:28 10° SW 21:48:14 20° W 21:51:02 10° NW visible
03 Sep 5.0 21:39:18 10° SSW 21:42:20 23° W 21:45:22 10° NW visible
04 Sep 4.7 21:33:12 10° SSW 21:36:25 27° W 21:39:40 10° NW visible
05 Sep 4.4 21:27:08 10° SSW 21:30:31 32° W 21:33:55 10° NNW visible
06 Sep 4.1 21:21:07 10° SSW 21:24:36 38° W 21:28:09 10° NNW visible
07 Sep 3.7 21:15:07 10° S 21:18:42 46° W 21:22:21 10° NNW visible
08 Sep 3.3 21:09:08 10° S 21:12:48 55° W 21:16:32 10° NNW visible
09 Sep 3.0 21:03:12 10° S 21:06:55 67° W 21:10:41 10° NNW visible
10 Sep 2.7 20:57:17 10° S 21:01:01 81° WSW 21:04:49 10° NNW visible
